Regional Weather Roundup
Issued by NWS

Home | Current Version | Previous Version | Graphics & Text | Print | Product List | Glossary On
Versions: 1 2 3 4 5 6 7 8 9 10 11 12 13 14 15 16 17 18 19 20 21 22 23 24 25 26 27 28 29 30 31 32 33 34 35 36 37 38 39 40 41 42 43 44 45 46 47 48 49 50
939
ASUS45 KBOU 270907
RWRCO

WEATHER ROUNDUP FOR COLORADO
NATIONAL WEATHER SERVICE DENVER/BOULDER CO
300 AM MDT MON MAR 27 2017

NOTE: "FAIR" INDICATES FEW OR NO CLOUDS BELOW 12000 FEET WITH NO
SIGNIFICANT WEATHER AND/OR OBSTRUCTIONS TO VISIBILITY.

COZ001>005-013-030-031-271000-
...NORTHWEST COLORADO...

CITY           SKY/WX    TMP DP  RH WIND       PRES   REMARKS
CRAIG          MOCLDY    28  24  85 CALM      29.98S
HAYDEN         FAIR      34  25  69 E8        29.97F WCI  27
MEEKER         CLOUDY    32  25  75 NE3       29.97F
MOUNT WERNER   NOT AVBL
STEAMBOAT SPGS FAIR      32  28  83 CALM      29.98S
WALDEN         NOT AVBL
$$

COZ006>008-011-271000-
...WEST CENTRAL VALLEYS...

CITY           SKY/WX    TMP DP  RH WIND       PRES   REMARKS
GRAND JUNCTION CLOUDY    46  28  49 SE9       29.94F
MONTROSE       CLOUDY    40  31  70 SE10      30.00F
EAGLE          NOT AVBL
RIFLE          CLOUDY    35  27  72 CALM      29.98F
DELTA          MOCLDY    41  30  64 CALM      29.98S
NUCLA          FAIR      36  30  80 SE10      30.02F
$$

COZ017>023-064>068-271000-
...SOUTHWEST COLORADO...

CITY           SKY/WX    TMP DP  RH WIND       PRES   REMARKS
DURANGO        FAIR      32  26  78 E3        30.02S
CORTEZ         FAIR      32  29  88 E5        30.01S WCI  27
PAGOSA SPRINGS FAIR      33  32  96 CALM      30.05F
TELLURIDE      NOT AVBL
WOLF CREEK PAS FAIR      21  21 100 S12G18    30.15F WCI   9
$$

COZ009-010-012-014-032>034-037-058>063-271000-
...CENTRAL COLORADO...

CITY           SKY/WX    TMP DP  RH WIND       PRES   REMARKS
ASPEN          FAIR      31  21  66 S7        30.01S WCI  24
BUENA VISTA    FAIR      28  22  77 N5        30.00F WCI  23
COPPER MTN     FAIR      25  14  63 MISG      30.06F
BERTHOUD PASS  FAIR      16   5  62 NW30      30.01F WCI  -4
COTTONWOOD PAS FAIR      34  18  51 NW8       30.03F WCI  27
GUNNISON       FAIR      27  23  85 N5        30.05S WCI  22
KREMMLING      FAIR      30  27  86 CALM      30.02S
LEADVILLE      FAIR      25  16  68 N10       30.02F WCI  15
MONARCH PASS   FAIR      21  19  93 W33       30.16F FOG     WCI   2
SALIDA         FAIR      32  29  89 CALM      30.07F
SUNLIGHT       MOCLDY    25  21  86 SW15G23   30.09F WCI  12
WILKERSON PASS CLOUDY   N/A N/A N/A SW7       30.07S
$$

COZ069>075-271000-
...SAN LUIS VALLEY/SANGRE DE CRISTO MOUNTAINS...

CITY           SKY/WX    TMP DP  RH WIND       PRES   REMARKS
ALAMOSA        FAIR      28  26  92 S6        30.02S WCI  22
LA VETA PASS   NOT AVBL
SAGUACHE       FAIR      34  23  64 NW12      30.03S WCI  25
$$

COZ035-036-038>040-271000-
...NORTHERN COLORADO FRONT RANGE...

CITY           SKY/WX    TMP DP  RH WIND       PRES   REMARKS
DENVER INTL AP FAIR      32  29  88 S10       29.95S WCI  24
DMNS CITY PARK   N/A     39  38  97 MISG      29.96S
AURORA         PTCLDY    36  36  97 S6        29.96F
FRONT RANGE AP FAIR      34  32  93 S8        29.96F WCI  27
ERIE MUNI ARPT CLOUDY    37  36  95 CALM      29.96S
BOULDER MUN AP MOCLDY    41  41 100 CALM      29.95S
CENTENNIAL     FAIR      35  33  92 SW5       29.95F WCI  31
BROOMFIELD     MOCLDY    41  37  87 CALM      29.96S
FORT COLLINS   FAIR      38  35  89 S5        29.96S
LONGMONT       FAIR      38  37  93 CALM      29.97F
$$

COZ041-046-047-076>085-087-088-271000-
...PIKES PEAK/PALMER DIVIDE AND SOUTHERN FOOTHILLS...

CITY           SKY/WX    TMP DP  RH WIND       PRES   REMARKS
COLO. SPRINGS  FAIR      38  36  92 E6        29.99S
A. F. ACADEMY  FAIR      37  37 100 E3        29.98S
SCHRIEVER AFB  FAIR      36  35  99 CALM      29.99S
ELLICOTT         N/A    N/A N/A N/A CALM      29.97S
FALCON         FOG       36  36  99 W5        30.00S VSB<1/4
FORT CARSON    FAIR      39  38  96 CALM      29.97S
LIMON          FAIR      30  30 100 N5        29.96F WCI  25
MONUMENT HILL  FAIR      32  32 100 S9        30.00S WCI  24
TRINIDAD       FAIR      36  33  89 W12       29.99S
$$

COZ042>045-048>051-090-091-271000-
...NORTHEAST COLORADO...

CITY           SKY/WX    TMP DP  RH WIND       PRES   REMARKS
GREELEY ARPT   FAIR      28  26  92 N5        29.96F WCI  23
AKRON          FAIR      35  31  85 NW6       29.94F WCI  30
BURLINGTON     FAIR      36  34  92 W12       29.94S
WRAY           NOT AVBL
STERLING       FAIR      30  30 100 SW6       29.94S WCI  24
HOLYOKE        FAIR      37  36  93 W7        29.93F
FORT MORGAN    FAIR      30  28  92 W7        29.96S WCI  24
$$

COZ086-089-092>099-271000-
...SOUTHEAST COLORADO...

CITY           SKY/WX    TMP DP  RH WIND       PRES   REMARKS
PUEBLO         FAIR      35  32  88 CALM      29.96F
LA JUNTA       FAIR      39  35  86 W10       29.96F
LAMAR          FAIR      26  24  92 SW7       29.95S WCI  18
SPRINGFIELD      N/A     31  30  96 W8        29.94F WCI  23
$$




USA.gov is the U.S. government's official web portal to all federal, state and local government web resources and services.